Flag for Tuvalu Weather past 2 weeks in Funafuti, Tuvalu

Now
81 °F

Sprinkles. More clouds than sun.


Feels Like: 87 °F
Forecast: 82 / 89 °F
Wind: 15 mph from Southeast

Location: Funafuti

Current Time: Sep 1, 2015 at 4:02:41 PM

Latest Report: Sep 1, 2015 at 3:00 PM


Visibility: N/A

Pressure: 29.80 "Hg

Humidity: 89%

Dew point: 77 °F

Location of FunafutiLocation

Historic Weather in Funafuti — Graph

°F

Funafuti temperature yesterday

Maximum temperature yesterday: 88 °F (at 11:00 AM)
Minimum temperature yesterday: 82 °F (at 12:00 AM)
Average temperature yesterday: 84 °F

Past Weeks' High & Low Weather Summary

 TemperatureHumidityPressure
High91 °F (Aug 18, 12:00 PM)100% (Aug 19, 9:00 AM)29.92 "Hg (Aug 19, 9:00 AM)
Low36 °F (Aug 28, 10:00 AM)59% (Aug 31, 11:00 AM)29.77 "Hg (Aug 23, 3:00 PM)
Average84 °F78%29.84 "Hg
* Reported Aug 17 3:00 PM — Sep 1 2:00 PM, Funafuti, Weather by CustomWeather, © 2015

Note: Actual official high and low records may vary slightly from our data, if they occured in-between our weather recording intervals... More about our weather records

Advertising

Funafuti weather history for previous 24 hours

 ConditionsComfort  
Time TempWeatherWind HumidityBarometerVisibility
2:00 PM
Tue, Sep 1
81 °FSprinkles. More clouds than sun.12 mph84%29.83 "HgN/A
1:00 PM81 °FSprinkles. More clouds than sun.14 mph84%29.86 "HgN/A
11:00 AM81 °FScattered showers. More clouds than sun.13 mph84%29.89 "HgN/A
9:00 AM79 °FScattered showers. More clouds than sun.14 mph89%29.89 "HgN/A
8:00 AM84 °FScattered showers. More clouds than sun.13 mph74%29.89 "HgN/A
7:00 AM82 °FCloudy.12 mph79%29.86 "HgN/A
6:00 AM82 °FOvercast.12 mph79%29.86 "HgN/A
5:00 AM82 °FMostly cloudy.12 mph79%29.83 "HgN/A
4:00 AM82 °FMostly cloudy.7 mph79%29.83 "HgN/A
3:00 AM82 °FMostly cloudy.8 mph79%29.83 "HgN/A
2:00 AM82 °FPartly cloudy.7 mph79%29.83 "HgN/A
1:00 AM82 °FPartly cloudy.8 mph79%29.83 "HgN/A
12:00 AM82 °FScattered showers. Partly cloudy.10 mph74%29.86 "HgN/A
11:00 PM
Mon, Aug 31
82 °FScattered showers. Mostly cloudy.14 mph79%29.86 "HgN/A
10:00 PM82 °FSprinkles. Mostly cloudy.14 mph79%29.86 "HgN/A
9:00 PM82 °FScattered showers. Overcast.16 mph79%29.86 "HgN/A
8:00 PM82 °FScattered showers. Mostly cloudy.14 mph79%29.83 "HgN/A
7:00 PM82 °FOvercast.13 mph79%29.83 "HgN/A
6:00 PM84 °FOvercast.14 mph70%29.83 "HgN/A
5:00 PM86 °FBroken clouds.10 mph62%29.80 "HgN/A
4:00 PM86 °FBroken clouds.10 mph62%29.80 "HgN/A
Weather by CustomWeather, © 2015

See weather overviewHow to use our weather pages